Regional Weather Roundup
Issued by NWS Nashville, TN

Home | Current Version | Previous Version | Text Only | Print | Product List | Glossary On
Versions: 1 2 3 4 5 6 7 8 9 10 11 12 13 14 15 16 17 18 19 20 21 22 23 24 25 26 27 28
000
ASUS44 KOHX 031210
RWROHX
MIDDLE TENNESSEE HOURLY WEATHER ROUNDUP
NATIONAL WEATHER SERVICE NASHVILLE TN
700 AM CDT TUE AUG 03 2021

NOTE: "FAIR" INDICATES FEW OR NO CLOUDS BELOW 12,000 FEET WITH
NO SIGNIFICANT WEATHER AND/OR OBSTRUCTIONS TO VISIBILITY.

* THESE REPORTS ARE NOT UNDER NWS QUALITY CONTROL AND MAY NOT
  REPORT WEATHER SUCH AS PRECIPITATION AND FOG.


TNZ005>011-023>034-057-059-062>066-078-080-031300
...NORTHERN MIDDLE TENNESSEE...

CITY           SKY/WX    TMP DP  RH WIND       PRES   REMARKS
CLARKSVILLE    SUNNY     61  58  90 W3        30.04S
CROSSVILLE     SUNNY     60  59  96 CALM      30.06S FOG
DICKSON        SUNNY     61  57  88 CALM      30.03S
GALLATIN       SUNNY     61  59  94 CALM      30.05S FOG
LEBANON        SUNNY     61  61 100 CALM      30.01S
LIVINGSTON     FOG       63  63 100 NE6       30.04R VSB 0
NASHVILLE      MOSUNNY   65  59  81 CALM      30.04R
PORTLAND       SUNNY     59  59 100 CALM      30.03S
SMYRNA         SUNNY     66  61  82 CALM      30.05
SPARTA         CLOUDY    63  63 100 CALM      30.03S
SPRINGFIELD    SUNNY     61  61 100 CALM      30.03S
WEST NASHVILLE SUNNY     63  61  94 CALM      30.02R
$$
TNZ056-058-060-061-075>077-079-093>097-031300
...SOUTHERN MIDDLE TENNESSEE...

CITY           SKY/WX    TMP DP  RH WIND       PRES   REMARKS
COLUMBIA       SUNNY     61  61 100 CALM      30.01S FOG
FAYETTEVILLE   SUNNY     64  63  94 N6        30.04R
LAWRENCEBURG   SUNNY     63  61  94 CALM      30.02S
LEWISBURG      SUNNY     61  61 100 CALM      30.02S
MCMINNVILLE    SUNNY     61  61 100 CALM      30.03R FOG
MURFREESBORO   SUNNY     63  61  94 CALM      30.01S
PULASKI        SUNNY     63  63 100 NW3       30.01S
SHELBYVILLE    SUNNY     61  61 100 CALM      30.02S FOG
TULLAHOMA      SUNNY     63  61  94 CALM      30.02S
WINCHESTER     SUNNY     63  63 100 CALM      30.02R FOG
$$


...KEY TO REMARKS...
VSB - VISIBILITY IN MILES
WCI - WIND CHILL INDEX
HX  - HEAT INDEX




USA.gov is the U.S. government's official web portal to all federal, state and local government web resources and services.